This is the latest recevied weather packets stored in our database for station/object KM4LTG. If no packets are shown the sender has not sent any weather packets the latest 10 day(s).
| Time | Temp. | Humidity | Pressure | Rain* | Wind** | Luminosity | Snow |
|---|---|---|---|---|---|---|---|
| 1778004915 | 30° C | 49% | 1016.3 hPa | 0 mm | - | - | - |
| 1778004660 | 30° C | 49% | 1016.3 hPa | 0 mm | - | - | - |
| 1778004410 | 29.44° C | 51% | 1016.4 hPa | 0 mm | - | - | - |
| 1778004140 | 30° C | 52% | 1016.4 hPa | 0 mm | - | - | - |
| 1778003865 | 29.44° C | 51% | 1016.5 hPa | 0 mm | - | - | - |
| 1778003570 | 29.44° C | 51% | 1016.6 hPa | 0 mm | - | - | - |
| 1778003304 | 29.44° C | 52% | 1016.7 hPa | 0 mm | - | - | - |
| 1778003053 | 29.44° C | 56% | 1016.7 hPa | 0 mm | - | - | - |
| 1778002775 | 29.44° C | 54% | 1016.8 hPa | 0 mm | - | - | - |
| 1778002495 | 29.44° C | 55% | 1016.9 hPa | 0 mm | - | - | - |
| 1778002220 | 29.44° C | 55% | 1016.9 hPa | 0 mm | - | - | - |
| 1778001965 | 28.89° C | 57% | 1016.8 hPa | 0 mm | - | - | - |
| 1778001700 | 28.89° C | 58% | 1016.8 hPa | 0 mm | - | - | - |
| 1778001460 | 28.89° C | 58% | 1016.9 hPa | 0 mm | - | - | - |
| 1778001180 | 28.33° C | 59% | 1016.9 hPa | 0 mm | - | - | - |
| 1778000930 | 27.78° C | 60% | 1017.1 hPa | 0 mm | - | - | - |
| 1778000685 | 28.33° C | 59% | 1017.1 hPa | 0 mm | - | - | - |
| 1778000410 | 27.78° C | 61% | 1017.2 hPa | 0 mm | - | - | - |
| 1778000140 | 27.78° C | 61% | 1017.2 hPa | 0 mm | - | - | - |
| 1777999886 | 27.78° C | 61% | 1017.3 hPa | 0 mm | - | - | - |
| 1777999640 | 27.78° C | 61% | 1017.3 hPa | 0 mm | - | - | - |
| 1777999382 | 27.78° C | 60% | 1017.2 hPa | 0 mm | - | - | - |
| 1777999096 | 27.22° C | 61% | 1017.3 hPa | 0 mm | - | - | - |
| 1777998802 | 27.22° C | 62% | 1017.3 hPa | 0 mm | - | - | - |
| 1777998530 | 27.78° C | 60% | 1017.3 hPa | 0 mm | - | - | - |
* Rain latest hour (hover to see other rain measurements)
** Current wind speed in m/s (hover to see current wind gust speed)